sat.trackr.live / text

‹ back to catalog

KUIPER-00173

NORAD 65786 · 2025-217AA

PAYLOAD ACTIVE UNKNOWN

§ Identity

Operator
Country
US
Launch date
2025-09-25
Launch site
AFETR
Launch vehicle
Mass (kg)
RCS (m²)

External: N2YO · Heavens-Above · Gunter

§ Orbital elements

Epoch: 2026-05-25T03:18:29.932416Z

Period
97.30 min
Inclination
51.9008°
Eccentricity
0.0001199
Mean motion
14.79938521 rev/d
Perigee alt
628.7 km
Apogee alt
630.4 km
Semi-major
7,007.7 km
B*
2.7516e-4
RAAN
55.0558°
Arg perigee
72.0112°
Mean anomaly
288.0980°
Rev number
3,633

§ Raw data

KUIPER-001731 65786U 25217AA  26145.13784644  .00001877  00000+0  27516-3 0  99902 65786  51.9008  55.0558 0001199  72.0112 288.0980 14.79938521 36337

JSON: /api/v1/satellites/65786 · /tle

For live sub-satellite position, see the globe view (requires WebGL).

§ Visibility from observer

Set your observer location to see the next 7 days of passes ≥ 10°. The values pass through the URL so the page stays shareable.

No JS? Fill the form by hand. The geolocation button needs JavaScript.